Time,TemperatureF,DewpointF,PressureIn,WindDirection,WindDirectionDegrees,WindSpeedMPH,WindSpeedGustMPH,Humidity,HourlyPrecipIn,Conditions,Clouds,dailyrainin,SoftwareType,DateUTC
2013-03-06 00:02:00,38.0,24.0,-100.00,ESE,110,6.0,15.0,56,0.00,,,-99.99,,2013-03-06 05:02:00,
2013-03-06 00:11:00,38.0,24.0,-100.00,ESE,115,9.0,17.0,57,0.00,,,-99.99,,2013-03-06 05:11:00,
2013-03-06 00:22:00,38.0,24.0,-100.00,ESE,115,9.0,17.0,57,0.00,,,-99.99,,2013-03-06 05:22:00,
2013-03-06 00:32:00,38.0,24.0,-100.00,East,95,5.0,12.0,57,0.00,,,-99.99,,2013-03-06 05:32:00,
2013-03-06 00:42:00,38.0,25.0,-100.00,ESE,115,7.0,16.0,58,0.00,,,-99.99,,2013-03-06 05:42:00,
2013-03-06 00:52:00,38.0,25.0,-100.00,ESE,115,7.0,16.0,58,0.00,,,-99.99,,2013-03-06 05:52:00,
2013-03-06 01:02:00,38.0,25.0,-100.00,SE,135,9.0,19.0,61,0.00,,,-99.99,,2013-03-06 06:02:00,
2013-03-06 01:11:00,36.0,28.0,-100.00,ESE,120,9.0,21.0,71,0.00,,,-99.99,,2013-03-06 06:11:00,
2013-03-06 01:22:00,36.0,28.0,-100.00,ESE,120,9.0,21.0,71,0.00,,,-99.99,,2013-03-06 06:22:00,
2013-03-06 01:32:00,35.0,30.0,-100.00,ESE,115,7.0,17.0,79,0.00,,,-99.99,,2013-03-06 06:32:00,
2013-03-06 01:42:00,35.0,31.0,-100.00,East,80,6.0,12.0,87,0.00,,,-99.99,,2013-03-06 06:42:00,
2013-03-06 01:52:00,35.0,31.0,-100.00,East,80,6.0,12.0,87,0.00,,,-99.99,,2013-03-06 06:52:00,
2013-03-06 02:01:00,34.0,32.0,-100.00,East,85,7.0,13.0,92,0.00,,,-99.99,,2013-03-06 07:01:00,
2013-03-06 02:11:00,33.0,32.0,-100.00,East,85,6.0,11.0,94,0.00,,,-99.99,,2013-03-06 07:11:00,
2013-03-06 02:22:00,33.0,32.0,-100.00,East,85,6.0,11.0,94,0.00,,,-99.99,,2013-03-06 07:22:00,
2013-03-06 02:32:00,33.0,32.0,-100.00,East,85,9.0,15.0,97,0.01,,,-99.99,,2013-03-06 07:32:00,
2013-03-06 02:42:00,33.0,32.0,-100.00,ENE,70,6.0,17.0,98,0.00,,,-99.99,,2013-03-06 07:42:00,
2013-03-06 02:52:00,33.0,32.0,-100.00,ENE,70,6.0,17.0,98,0.00,,,-99.99,,2013-03-06 07:52:00,
2013-03-06 03:01:00,33.0,32.0,-100.00,East,80,7.0,12.0,98,0.00,,,-99.99,,2013-03-06 08:01:00,
2013-03-06 03:11:00,32.0,32.0,-100.00,ENE,65,6.0,12.0,99,0.06,,,-99.99,,2013-03-06 08:11:00,
2013-03-06 03:21:00,32.0,32.0,-100.00,ENE,65,6.0,12.0,99,0.06,,,-99.99,,2013-03-06 08:21:00,
2013-03-06 03:32:00,32.0,32.0,-100.00,East,80,9.0,15.0,99,0.03,,,-99.99,,2013-03-06 08:32:00,
2013-03-06 03:42:00,32.0,32.0,-100.00,East,80,6.0,14.0,99,0.07,,,-99.99,,2013-03-06 08:42:00,
2013-03-06 03:52:00,32.0,32.0,-100.00,East,80,6.0,14.0,99,0.07,,,-99.99,,2013-03-06 08:52:00,
2013-03-06 04:02:00,32.0,32.0,-100.00,ENE,70,7.0,13.0,99,0.06,,,-99.99,,2013-03-06 09:02:00,
2013-03-06 04:12:00,32.0,32.0,-100.00,ENE,70,7.0,14.0,99,0.10,,,-99.99,,2013-03-06 09:12:00,
2013-03-06 04:21:00,32.0,32.0,-100.00,ENE,70,7.0,14.0,99,0.10,,,-99.99,,2013-03-06 09:21:00,
2013-03-06 04:32:00,32.0,32.0,-100.00,ENE,65,8.0,14.0,99,0.13,,,-99.99,,2013-03-06 09:32:00,
2013-03-06 04:42:00,32.0,32.0,-100.00,ENE,65,10.0,16.0,99,0.06,,,-99.99,,2013-03-06 09:42:00,
2013-03-06 04:52:00,32.0,32.0,-100.00,ENE,65,10.0,16.0,99,0.06,,,-99.99,,2013-03-06 09:52:00,
2013-03-06 05:02:00,32.0,32.0,-100.00,NE,55,10.0,17.0,99,0.01,,,-99.99,,2013-03-06 10:02:00,
2013-03-06 05:11:00,32.0,32.0,-100.00,NE,40,7.0,14.0,99,0.03,,,-99.99,,2013-03-06 10:11:00,
2013-03-06 05:22:00,32.0,32.0,-100.00,NE,40,7.0,14.0,99,0.03,,,-99.99,,2013-03-06 10:22:00,
2013-03-06 05:32:00,32.0,32.0,-100.00,NNE,30,10.0,14.0,99,0.07,,,-99.99,,2013-03-06 10:32:00,
2013-03-06 05:42:00,32.0,32.0,-100.00,NNE,30,6.0,14.0,99,0.07,,,-99.99,,2013-03-06 10:42:00,
2013-03-06 05:52:00,32.0,32.0,-100.00,NNE,30,6.0,14.0,99,0.07,,,-99.99,,2013-03-06 10:52:00,
2013-03-06 06:02:00,32.0,32.0,-100.00,NE,55,7.0,12.0,99,0.06,,,-99.99,,2013-03-06 11:02:00,
2013-03-06 06:11:00,32.0,32.0,-100.00,NNE,15,8.0,13.0,99,0.16,,,-99.99,,2013-03-06 11:11:00,
2013-03-06 06:22:00,32.0,32.0,-100.00,NNE,15,8.0,13.0,99,0.16,,,-99.99,,2013-03-06 11:22:00,
2013-03-06 06:32:00,32.0,32.0,-100.00,North,10,9.0,17.0,99,0.01,,,-99.99,,2013-03-06 11:32:00,
2013-03-06 06:42:00,32.0,32.0,-100.00,NNE,20,8.0,16.0,99,0.01,,,-99.99,,2013-03-06 11:42:00,
2013-03-06 06:52:00,32.0,32.0,-100.00,NNE,20,8.0,16.0,99,0.01,,,-99.99,,2013-03-06 11:52:00,
2013-03-06 07:02:00,32.0,32.0,-100.00,NNE,25,11.0,17.0,99,0.01,,,-99.99,,2013-03-06 12:02:00,
2013-03-06 07:11:00,32.0,32.0,-100.00,NNE,30,11.0,17.0,99,0.01,,,-99.99,,2013-03-06 12:11:00,
2013-03-06 07:22:00,32.0,32.0,-100.00,NNE,30,11.0,17.0,99,0.01,,,-99.99,,2013-03-06 12:22:00,
2013-03-06 07:33:00,32.0,32.0,-100.00,NNE,20,11.0,20.0,99,0.03,,,-99.99,,2013-03-06 12:33:00,
2013-03-06 07:42:00,32.0,32.0,-100.00,NNE,20,10.0,19.0,99,0.03,,,-99.99,,2013-03-06 12:42:00,
2013-03-06 07:52:00,32.0,32.0,-100.00,NNE,20,10.0,19.0,99,0.03,,,-99.99,,2013-03-06 12:52:00,
2013-03-06 08:02:00,32.0,32.0,-100.00,NNE,30,9.0,21.0,99,0.08,,,-99.99,,2013-03-06 13:02:00,
2013-03-06 08:12:00,32.0,32.0,-100.00,NNE,30,11.0,20.0,99,0.10,,,-99.99,,2013-03-06 13:12:00,
2013-03-06 08:22:00,32.0,32.0,-100.00,NNE,30,11.0,20.0,99,0.10,,,-99.99,,2013-03-06 13:22:00,
2013-03-06 08:32:00,32.0,32.0,-100.00,NNE,15,12.0,22.0,99,0.04,,,-99.99,,2013-03-06 13:32:00,
2013-03-06 08:42:00,32.0,32.0,-100.00,North,10,12.0,22.0,99,0.06,,,-99.99,,2013-03-06 13:42:00,
2013-03-06 08:52:00,32.0,32.0,-100.00,North,10,12.0,22.0,99,0.06,,,-99.99,,2013-03-06 13:52:00,
2013-03-06 09:02:00,33.0,32.0,-100.00,NNE,30,11.0,20.0,99,0.08,,,-99.99,,2013-03-06 14:02:00,
2013-03-06 09:11:00,33.0,32.0,-100.00,NNE,15,13.0,25.0,99,0.06,,,-99.99,,2013-03-06 14:11:00,
2013-03-06 09:22:00,33.0,32.0,-100.00,NNE,15,13.0,25.0,99,0.06,,,-99.99,,2013-03-06 14:22:00,
2013-03-06 09:32:00,33.0,32.0,-100.00,NNE,20,14.0,22.0,99,0.01,,,-99.99,,2013-03-06 14:32:00,
2013-03-06 09:42:00,33.0,33.0,-100.00,NNE,20,12.0,24.0,99,0.00,,,-99.99,,2013-03-06 14:42:00,
2013-03-06 09:52:00,33.0,33.0,-100.00,NNE,20,12.0,24.0,99,0.00,,,-99.99,,2013-03-06 14:52:00,
2013-03-06 10:02:00,33.0,33.0,-100.00,North,10,16.0,24.0,99,0.00,,,-99.99,,2013-03-06 15:02:00,
2013-03-06 10:11:00,33.0,33.0,-100.00,NNE,20,15.0,29.0,99,0.00,,,-99.99,,2013-03-06 15:11:00,
2013-03-06 10:22:00,33.0,33.0,-100.00,NNE,20,15.0,29.0,99,0.00,,,-99.99,,2013-03-06 15:22:00,
2013-03-06 10:32:00,33.0,33.0,-100.00,NNE,15,17.0,27.0,99,0.00,,,-99.99,,2013-03-06 15:32:00,
2013-03-06 10:42:00,33.0,33.0,-100.00,NNE,20,16.0,26.0,99,0.00,,,-99.99,,2013-03-06 15:42:00,
2013-03-06 10:52:00,33.0,33.0,-100.00,NNE,20,16.0,26.0,99,0.00,,,-99.99,,2013-03-06 15:52:00,
2013-03-06 11:02:00,33.0,33.0,-100.00,North,10,12.0,25.0,99,0.00,,,-99.99,,2013-03-06 16:02:00,
2013-03-06 11:11:00,33.0,33.0,-100.00,NNE,20,15.0,24.0,99,0.00,,,-99.99,,2013-03-06 16:11:00,
2013-03-06 11:21:00,33.0,33.0,-100.00,NNE,20,15.0,24.0,99,0.00,,,-99.99,,2013-03-06 16:21:00,
2013-03-06 11:32:00,34.0,34.0,-100.00,NNE,25,14.0,26.0,99,0.00,,,-99.99,,2013-03-06 16:32:00,
2013-03-06 11:42:00,34.0,34.0,-100.00,NNE,25,14.0,24.0,99,0.00,,,-99.99,,2013-03-06 16:42:00,
2013-03-06 11:52:00,34.0,34.0,-100.00,NNE,25,14.0,24.0,99,0.00,,,-99.99,,2013-03-06 16:52:00,
2013-03-06 12:01:00,34.0,34.0,-100.00,NNE,15,15.0,26.0,99,0.01,,,-99.99,,2013-03-06 17:01:00,
2013-03-06 12:11:00,34.0,34.0,-100.00,NNE,25,18.0,26.0,99,0.00,,,-99.99,,2013-03-06 17:11:00,
2013-03-06 12:22:00,34.0,34.0,-100.00,NNE,25,18.0,26.0,99,0.00,,,-99.99,,2013-03-06 17:22:00,
2013-03-06 12:32:00,34.0,34.0,-100.00,North,10,15.0,30.0,99,0.00,,,-99.99,,2013-03-06 17:32:00,
2013-03-06 12:42:00,35.0,35.0,-100.00,NNE,15,15.0,30.0,99,0.00,,,-99.99,,2013-03-06 17:42:00,
2013-03-06 12:52:00,35.0,35.0,-100.00,NNE,15,15.0,30.0,99,0.00,,,-99.99,,2013-03-06 17:52:00,
2013-03-06 13:02:00,35.0,35.0,-100.00,NNE,15,17.0,32.0,99,0.00,,,-99.99,,2013-03-06 18:02:00,
2013-03-06 13:28:00,36.0,35.0,-100.00,NNE,15,17.0,29.0,96,0.00,,,-99.99,,2013-03-06 18:28:00,
2013-03-06 13:42:00,36.0,34.0,-100.00,NNE,15,16.0,29.0,91,0.00,,,-99.99,,2013-03-06 18:42:00,
2013-03-06 13:52:00,36.0,34.0,-100.00,NNE,15,16.0,29.0,91,0.00,,,-99.99,,2013-03-06 18:52:00,
2013-03-06 14:02:00,36.0,33.0,-100.00,NNE,15,14.0,32.0,89,0.00,,,-99.99,,2013-03-06 19:02:00,
2013-03-06 14:11:00,37.0,33.0,-100.00,NNE,15,16.0,24.0,85,0.00,,,-99.99,,2013-03-06 19:11:00,
2013-03-06 14:22:00,37.0,33.0,-100.00,NNE,15,16.0,24.0,85,0.00,,,-99.99,,2013-03-06 19:22:00,
2013-03-06 14:32:00,37.0,32.0,-100.00,NNE,20,13.0,26.0,82,0.00,,,-99.99,,2013-03-06 19:32:00,
2013-03-06 14:43:00,37.0,32.0,-100.00,NNE,20,13.0,22.0,80,0.00,,,-99.99,,2013-03-06 19:43:00,
2013-03-06 14:52:00,37.0,32.0,-100.00,NNE,20,13.0,22.0,80,0.00,,,-99.99,,2013-03-06 19:52:00,
2013-03-06 15:02:00,38.0,31.0,-100.00,NNE,20,15.0,25.0,77,0.00,,,-99.99,,2013-03-06 20:02:00,
2013-03-06 15:12:00,38.0,31.0,-100.00,NNE,20,12.0,21.0,75,0.00,,,-99.99,,2013-03-06 20:12:00,
2013-03-06 15:22:00,38.0,31.0,-100.00,NNE,20,12.0,21.0,75,0.00,,,-99.99,,2013-03-06 20:22:00,
2013-03-06 15:32:00,38.0,30.0,-100.00,NNE,25,10.0,21.0,73,0.00,,,-99.99,,2013-03-06 20:32:00,
2013-03-06 15:42:00,38.0,31.0,-100.00,NNE,30,12.0,18.0,73,0.00,,,-99.99,,2013-03-06 20:42:00,
2013-03-06 15:52:00,38.0,31.0,-100.00,NNE,30,12.0,18.0,73,0.00,,,-99.99,,2013-03-06 20:52:00,
2013-03-06 16:02:00,39.0,30.0,-100.00,NNE,20,8.0,18.0,71,0.00,,,-99.99,,2013-03-06 21:02:00,
2013-03-06 16:12:00,40.0,29.0,-100.00,North,10,11.0,18.0,67,0.00,,,-99.99,,2013-03-06 21:12:00,
2013-03-06 16:22:00,40.0,29.0,-100.00,North,10,11.0,18.0,67,0.00,,,-99.99,,2013-03-06 21:22:00,
2013-03-06 16:32:00,40.0,29.0,-100.00,North,10,7.0,15.0,66,0.00,,,-99.99,,2013-03-06 21:32:00,
2013-03-06 16:42:00,40.0,29.0,-100.00,North,0,7.0,14.0,66,0.00,,,-99.99,,2013-03-06 21:42:00,
2013-03-06 16:51:00,40.0,29.0,-100.00,North,0,7.0,14.0,66,0.00,,,-99.99,,2013-03-06 21:51:00,
2013-03-06 17:02:00,40.0,29.0,-100.00,North,0,7.0,16.0,66,0.00,,,-99.99,,2013-03-06 22:02:00,
2013-03-06 17:11:00,40.0,29.0,-100.00,North,0,7.0,12.0,65,0.00,,,-99.99,,2013-03-06 22:11:00,
2013-03-06 17:22:00,40.0,29.0,-100.00,North,0,7.0,12.0,65,0.00,,,-99.99,,2013-03-06 22:22:00,
2013-03-06 17:32:00,39.0,29.0,-100.00,North,0,6.0,11.0,66,0.00,,,-99.99,,2013-03-06 22:32:00,
2013-03-06 17:42:00,39.0,28.0,-100.00,North,0,7.0,18.0,65,0.00,,,-99.99,,2013-03-06 22:42:00,
2013-03-06 17:51:00,39.0,28.0,-100.00,North,0,7.0,18.0,65,0.00,,,-99.99,,2013-03-06 22:51:00,
2013-03-06 18:01:00,39.0,28.0,-100.00,North,0,7.0,12.0,65,0.00,,,-99.99,,2013-03-06 23:01:00,
2013-03-06 18:11:00,39.0,28.0,-100.00,North,0,7.0,11.0,66,0.00,,,-99.99,,2013-03-06 23:11:00,
2013-03-06 18:21:00,39.0,28.0,-100.00,North,0,7.0,11.0,66,0.00,,,-99.99,,2013-03-06 23:21:00,
2013-03-06 18:32:00,39.0,28.0,-100.00,North,0,4.0,11.0,65,0.00,,,-99.99,,2013-03-06 23:32:00,
2013-03-06 18:42:00,39.0,28.0,-100.00,North,0,6.0,10.0,65,0.00,,,-99.99,,2013-03-06 23:42:00,
2013-03-06 18:52:00,39.0,28.0,-100.00,North,0,6.0,10.0,65,0.00,,,-99.99,,2013-03-06 23:52:00,
2013-03-06 19:02:00,39.0,27.0,-100.00,North,0,6.0,12.0,63,0.00,,,-99.99,,2013-03-07 00:02:00,
2013-03-06 19:11:00,39.0,27.0,-100.00,North,10,6.0,10.0,63,0.00,,,-99.99,,2013-03-07 00:11:00,
2013-03-06 19:21:00,39.0,27.0,-100.00,North,10,6.0,10.0,63,0.00,,,-99.99,,2013-03-07 00:21:00,
2013-03-06 19:32:00,39.0,27.0,-100.00,NNE,15,6.0,11.0,63,0.00,,,-99.99,,2013-03-07 00:32:00,
2013-03-06 19:42:00,39.0,27.0,-100.00,North,5,4.0,9.0,63,0.00,,,-99.99,,2013-03-07 00:42:00,
2013-03-06 19:52:00,39.0,27.0,-100.00,North,5,4.0,9.0,63,0.00,,,-99.99,,2013-03-07 00:52:00,
2013-03-06 20:01:00,38.0,27.0,-100.00,NNE,15,3.0,7.0,65,0.00,,,-99.99,,2013-03-07 01:01:00,
2013-03-06 20:12:00,38.0,28.0,-100.00,North,10,4.0,7.0,67,0.00,,,-99.99,,2013-03-07 01:12:00,
2013-03-06 20:21:00,38.0,28.0,-100.00,North,10,4.0,7.0,67,0.00,,,-99.99,,2013-03-07 01:21:00,
2013-03-06 20:32:00,38.0,28.0,-100.00,North,5,5.0,7.0,65,0.00,,,-99.99,,2013-03-07 01:32:00,
2013-03-06 20:42:00,38.0,27.0,-100.00,North,5,4.0,8.0,64,0.00,,,-99.99,,2013-03-07 01:42:00,
2013-03-06 20:51:00,38.0,27.0,-100.00,North,5,4.0,8.0,64,0.00,,,-99.99,,2013-03-07 01:51:00,
2013-03-06 21:01:00,38.0,27.0,-100.00,North,10,5.0,9.0,64,0.00,,,-99.99,,2013-03-07 02:01:00,
2013-03-06 21:11:00,38.0,27.0,-100.00,North,10,6.0,10.0,64,0.00,,,-99.99,,2013-03-07 02:11:00,
2013-03-06 21:21:00,38.0,27.0,-100.00,North,10,6.0,10.0,64,0.00,,,-99.99,,2013-03-07 02:21:00,
2013-03-06 21:32:00,38.0,28.0,-100.00,North,10,4.0,9.0,65,0.00,,,-99.99,,2013-03-07 02:32:00,
2013-03-06 21:41:00,38.0,28.0,-100.00,North,10,4.0,9.0,65,0.00,,,-99.99,,2013-03-07 02:41:00,
2013-03-06 21:51:00,38.0,28.0,-100.00,North,10,4.0,9.0,65,0.00,,,-99.99,,2013-03-07 02:51:00,
2013-03-06 22:02:00,37.0,28.0,-100.00,North,0,4.0,9.0,69,0.00,,,-99.99,,2013-03-07 03:02:00,
2013-03-06 22:11:00,37.0,28.0,-100.00,North,0,3.0,7.0,70,0.00,,,-99.99,,2013-03-07 03:11:00,
2013-03-06 22:22:00,37.0,28.0,-100.00,North,0,3.0,7.0,70,0.00,,,-99.99,,2013-03-07 03:22:00,
2013-03-06 22:32:00,37.0,28.0,-100.00,North,0,3.0,7.0,70,0.00,,,-99.99,,2013-03-07 03:32:00,
2013-03-06 22:42:00,37.0,28.0,-100.00,North,0,2.0,6.0,70,0.00,,,-99.99,,2013-03-07 03:42:00,
2013-03-06 22:52:00,37.0,28.0,-100.00,North,0,2.0,6.0,70,0.00,,,-99.99,,2013-03-07 03:52:00,
2013-03-06 23:02:00,37.0,28.0,-100.00,NNW,345,4.0,7.0,70,0.00,,,-99.99,,2013-03-07 04:02:00,
2013-03-06 23:12:00,37.0,28.0,-100.00,NNW,335,4.0,7.0,71,0.00,,,-99.99,,2013-03-07 04:12:00,
2013-03-06 23:22:00,37.0,28.0,-100.00,NNW,335,4.0,7.0,71,0.00,,,-99.99,,2013-03-07 04:22:00,
2013-03-06 23:32:00,36.0,28.0,-100.00,NNW,330,4.0,9.0,73,0.00,,,-99.99,,2013-03-07 04:32:00,
2013-03-06 23:42:00,36.0,28.0,-100.00,NNW,340,4.0,9.0,73,0.00,,,-99.99,,2013-03-07 04:42:00,
2013-03-06 23:52:00,36.0,28.0,-100.00,NNW,340,4.0,9.0,73,0.00,,,-99.99,,2013-03-07 04:52:00,